| time (UTC) | temp F | wind direction | speed knots | gust knots | rain 1hr in | rain 24hr in | rain mn in | humidity % | barometer mb |
| 20260507171538 | 58 | 74 | 0.9 | 3.5 | 0.00 | 0.00 | 0.00 | 73 | 1016.0 |
| 20260507170044 | 59 | 72 | 0.0 | 3.5 | 0.00 | 0.00 | 0.00 | 71 | 1015.8 |
| 20260507164537 | 59 | 71 | 0.0 | 3.5 | 0.00 | 0.00 | 0.00 | 73 | 1015.9 |
| 20260507163036 | 59 | 80 | 0.0 | 2.6 | 0.00 | 0.00 | 0.00 | 67 | 1016.0 |
| 20260507161536 | 59 | 101 | 0.9 | 2.6 | 0.00 | 0.00 | 0.00 | 68 | 1015.9 |
| 20260507160036 | 59 | 73 | 0.9 | 2.6 | 0.00 | 0.00 | 0.00 | 69 | 1016.0 |
| 20260507154535 | 59 | 74 | 0.9 | 5.2 | 0.00 | 0.00 | 0.00 | 69 | 1016.0 |
| 20260507153037 | 60 | 19 | 0.9 | 2.6 | 0.00 | 0.00 | 0.00 | 68 | 1016.1 |
| 20260507151534 | 59 | 57 | 0.9 | 3.5 | 0.00 | 0.00 | 0.00 | 69 | 1016.0 |
| 20260507150039 | 60 | 79 | 1.7 | 5.2 | 0.00 | 0.01 | 0.00 | 66 | 1016.1 |
| 20260507144534 | 59 | 67 | 0.9 | 3.5 | 0.00 | 0.01 | 0.00 | 60 | 1016.1 |
| 20260507143035 | 60 | 133 | 0.0 | 3.5 | 0.00 | 0.01 | 0.00 | 67 | 1016.1 |
| 20260507141531 | 59 | 337 | 0.0 | 1.7 | 0.00 | 0.01 | 0.00 | 71 | 1016.4 |
| 20260507140030 | 58 | 27 | 0.0 | 0.0 | 0.00 | 0.01 | 0.00 | 69 | 1016.5 |
| 20260507134531 | 58 | 202 | 0.0 | 0.0 | 0.00 | 0.01 | 0.00 | 71 | 1016.7 |
| 20260507133029 | 58 | 78 | 0.0 | 0.0 | 0.00 | 0.01 | 0.00 | 72 | 1016.6 |
| 20260507131535 | 58 | 248 | 0.0 | 2.6 | 0.00 | 0.01 | 0.00 | 74 | 1016.6 |
| 20260507130028 | 58 | 29 | 0.0 | 1.7 | 0.00 | 0.01 | 0.00 | 76 | 1016.5 |
| 20260507124527 | 58 | 360 | 0.0 | 2.6 | 0.00 | 0.01 | 0.00 | 73 | 1016.5 |
| 20260507123027 | 59 | 55 | 0.0 | 2.6 | 0.00 | 0.01 | 0.00 | 71 | 1016.5 |
| 20260507121526 | 58 | 59 | 0.0 | 3.5 | 0.00 | 0.01 | 0.00 | 66 | 1016.6 |
| 20260507120037 | 57 | 61 | 0.0 | 1.7 | 0.00 | 0.01 | 0.00 | 67 | 1016.6 |
| 20260507114525 | 57 | 9 | 0.0 | 1.7 | 0.00 | 0.01 | 0.00 | 63 | 1016.7 |
| 20260507113024 | 58 | 9 | 0.9 | 1.7 | 0.00 | 0.01 | 0.00 | 64 | 1016.7 |
| 20260507111525 | 58 | 311 | 0.9 | 1.7 | 0.00 | 0.01 | 0.00 | 64 | 1016.8 |
| 20260507110024 | 59 | 76 | 0.9 | 2.6 | 0.00 | 0.01 | 0.00 | 64 | 1016.7 |
| 20260507104521 | 58 | 303 | 0.9 | 1.7 | 0.00 | 0.01 | 0.00 | 69 | 1016.9 |
| 20260507103020 | 58 | 19 | 0.9 | 3.5 | 0.00 | 0.01 | 0.00 | 74 | 1017.0 |
| 20260507101519 | 58 | 57 | 0.9 | 3.5 | 0.00 | 0.01 | 0.00 | 69 | 1017.0 |
| 20260507100022 | 58 | 360 | 0.0 | 2.6 | 0.00 | 0.01 | 0.00 | 73 | 1016.9 |
| 20260507094516 | 57 | 78 | 0.0 | 3.5 | 0.00 | 0.01 | 0.00 | 73 | 1017.0 |
| 20260507093012 | 57 | 298 | 0.0 | 1.7 | 0.00 | 0.01 | 0.00 | 76 | 1016.8 |
| 20260507091514 | 56 | 313 | 0.0 | 2.6 | 0.00 | 0.01 | 0.00 | 77 | 1016.9 |
| 20260507090010 | 56 | 90 | 0.0 | 3.5 | 0.00 | 0.01 | 0.00 | 78 | 1016.8 |
| 20260507084510 | 55 | 96 | 0.9 | 2.6 | 0.00 | 0.01 | 0.00 | 78 | 1016.7 |
| 20260507083100 | 54 | 103 | 0.9 | 2.6 | 0.00 | 0.01 | 0.00 | 78 | 1016.7 |
| 20260507081603 | 53 | 329 | 0.0 | 1.7 | 0.00 | 0.01 | 0.00 | 80 | 1016.7 |
| 20260507080053 | 53 | 324 | 0.0 | 0.9 | 0.00 | 0.01 | 0.00 | 82 | 1016.7 |
| 20260507074601 | 52 | 324 | 0.0 | 0.9 | 0.00 | 0.01 | 0.00 | 86 | 1016.6 |
| 20260507073045 | 52 | 324 | 0.0 | 0.0 | 0.00 | 0.01 | 0.00 | 88 | 1016.4 |
| 20260507071541 | 51 | 325 | 0.0 | 0.0 | 0.00 | 0.01 | 0.00 | 90 | 1016.4 |
| 20260507070037 | 50 | 324 | 0.0 | 0.0 | 0.00 | 0.01 | 0.00 | 92 | 1016.3 |
| 20260507064533 | 49 | 324 | 0.0 | 0.0 | 0.00 | 0.01 | 0.00 | 92 | 1016.2 |
| 20260507063030 | 48 | 324 | 0.0 | 0.9 | 0.00 | 0.01 | 0.00 | 93 | 1016.2 |
| 20260507061528 | 48 | 355 | 0.0 | 1.7 | 0.00 | 0.01 | 0.00 | 93 | 1016.1 |
| 20260507060027 | 48 | 274 | 0.0 | 1.7 | 0.00 | 0.01 | 0.00 | 94 | 1016.0 |
| 20260507054521 | 47 | 280 | 0.0 | 1.7 | 0.00 | 0.01 | 0.00 | 94 | 1016.0 |
| 20260507053020 | 47 | 355 | 0.0 | 2.6 | 0.00 | 0.01 | 0.00 | 95 | 1015.9 |
| 20260507051518 | 46 | 24 | 0.0 | 2.6 | 0.00 | 0.01 | 0.00 | 95 | 1015.8 |
| 20260507050025 | 45 | 314 | 0.0 | 0.9 | 0.00 | 0.01 | 0.00 | 95 | 1015.7 |
| 20260507044513 | 45 | 314 | 0.0 | 0.9 | 0.00 | 0.01 | 0.00 | 95 | 1015.5 |
| 20260507043010 | 45 | 314 | 0.0 | 0.9 | 0.00 | 0.01 | 0.00 | 95 | 1015.4 |
| 20260507041510 | 45 | 314 | 0.0 | 2.6 | 0.00 | 0.01 | 0.00 | 95 | 1015.3 |
| 20260507040009 | 45 | 325 | 0.0 | 1.7 | 0.00 | 0.01 | 0.00 | 95 | 1015.4 |
| 20260507034508 | 45 | 325 | 0.0 | 0.9 | 0.00 | 0.01 | 0.00 | 95 | 1015.3 |
| 20260507033017 | 45 | 325 | 0.0 | 1.7 | 0.00 | 0.01 | 0.00 | 94 | 1015.4 |
| 20260507031506 | 45 | 325 | 0.0 | 0.9 | 0.00 | 0.01 | 0.00 | 94 | 1015.4 |
| 20260507030006 | 46 | 325 | 0.0 | 0.9 | 0.00 | 0.02 | 0.00 | 94 | 1015.3 |
| 20260507024503 | 46 | 325 | 0.0 | 0.9 | 0.00 | 0.02 | 0.00 | 93 | 1015.3 |
| 20260507023002 | 46 | 325 | 0.0 | 0.9 | 0.00 | 0.02 | 0.00 | 93 | 1015.3 |
| 20260507021503 | 46 | 325 | 0.0 | 0.9 | 0.00 | 0.02 | 0.00 | 93 | 1015.2 |
| 20260507014605 | 46 | 355 | 0.0 | 1.7 | 0.00 | 0.02 | 0.00 | 93 | 1015.1 |
| 20260507013058 | 46 | 355 | 0.0 | 1.7 | 0.00 | 0.02 | 0.00 | 93 | 1015.1 |
| 20260507011557 | 46 | 232 | 0.0 | 0.9 | 0.00 | 0.02 | 0.00 | 94 | 1014.8 |
| 20260507004554 | 47 | 334 | 0.0 | 2.6 | 0.00 | 0.02 | 0.00 | 93 | 1014.7 |
| 20260507003053 | 47 | 212 | 0.0 | 3.5 | 0.00 | 0.02 | 0.00 | 93 | 1014.7 |
| 20260507001559 | 47 | 313 | 0.0 | 0.9 | 0.00 | 0.02 | 0.00 | 93 | 1014.8 |
| 20260507000050 | 47 | 126 | 0.0 | 1.7 | 0.00 | 0.02 | 0.00 | 92 | 1014.8 |
| 20260506234549 | 48 | 15 | 0.0 | 2.6 | 0.00 | 0.02 | 0.00 | 92 | 1014.9 |
| 20260506233102 | 48 | 265 | 0.0 | 2.6 | 0.00 | 0.02 | 0.00 | 91 | 1014.8 |
| 20260506231548 | 48 | 34 | 0.9 | 5.2 | 0.00 | 0.02 | 0.00 | 91 | 1014.8 |
| 20260506230045 | 48 | 302 | 0.0 | 4.3 | 0.00 | 0.04 | 0.00 | 90 | 1014.8 |
| 20260506224541 | 49 | 225 | 0.0 | 2.6 | 0.00 | 0.04 | 0.00 | 90 | 1014.7 |
| 20260506223036 | 49 | 346 | 0.0 | 4.3 | 0.00 | 0.04 | 0.00 | 90 | 1014.7 |
| 20260506221532 | 49 | 248 | 0.0 | 2.6 | 0.00 | 0.04 | 0.00 | 90 | 1014.5 |
| 20260506220027 | 49 | 320 | 0.9 | 4.3 | 0.00 | 0.06 | 0.04 | 90 | 1014.4 |
| 20260506214527 | 49 | 5 | 0.9 | 4.3 | 0.00 | 0.06 | 0.04 | 90 | 1014.5 |
| 20260506213025 | 49 | 32 | 0.9 | 5.2 | 0.00 | 0.06 | 0.04 | 90 | 1014.4 |
| 20260506211523 | 49 | 101 | 0.9 | 3.5 | 0.00 | 0.06 | 0.04 | 90 | 1014.2 |
| 20260506210025 | 49 | 146 | 1.7 | 7.0 | 0.00 | 0.07 | 0.04 | 89 | 1014.1 |
| 20260506204525 | 49 | 325 | 0.9 | 4.3 | 0.00 | 0.07 | 0.04 | 89 | 1014.1 |
| 20260506203021 | 49 | 311 | 0.9 | 5.2 | 0.00 | 0.07 | 0.04 | 89 | 1014.0 |
| 20260506201521 | 50 | 276 | 0.9 | 3.5 | 0.00 | 0.07 | 0.04 | 89 | 1013.9 |
| 20260506200019 | 50 | 13 | 0.9 | 5.2 | 0.00 | 0.07 | 0.04 | 88 | 1013.7 |
| 20260506194520 | 50 | 282 | 0.0 | 2.6 | 0.00 | 0.07 | 0.04 | 88 | 1013.6 |
| 20260506193017 | 50 | 321 | 0.9 | 4.3 | 0.00 | 0.07 | 0.04 | 87 | 1013.3 |
| 20260506191517 | 51 | 304 | 0.9 | 7.0 | 0.00 | 0.07 | 0.04 | 86 | 1013.2 |
| 20260506190015 | 51 | 226 | 0.9 | 3.5 | 0.00 | 0.07 | 0.04 | 86 | 1013.0 |
| 20260506184514 | 51 | 306 | 0.0 | 5.2 | 0.00 | 0.07 | 0.04 | 85 | 1013.0 |
| 20260506183013 | 52 | 320 | 0.9 | 6.1 | 0.00 | 0.07 | 0.04 | 85 | 1012.9 |
| 20260506181511 | 52 | 234 | 0.9 | 3.5 | 0.00 | 0.07 | 0.04 | 84 | 1012.7 |
| 20260506180010 | 52 | 12 | 1.7 | 7.0 | 0.00 | 0.07 | 0.04 | 83 | 1012.5 |
| 20260506174509 | 52 | 329 | 0.9 | 4.3 | 0.00 | 0.07 | 0.04 | 84 | 1012.4 |
| 20260506173011 | 53 | 40 | 1.7 | 4.3 | 0.00 | 0.07 | 0.04 | 83 | 1012.3 |